Time,TemperatureF,DewpointF,PressureIn,WindDirection,WindDirectionDegrees,WindSpeedMPH,WindSpeedGustMPH,Humidity,HourlyPrecipIn,Conditions,Clouds,dailyrainin,SolarRadiationWatts/m^2,SoftwareType,DateUTC
2013-02-22 00:11:00,43.0,26.0,-100.00,ENE,72,11.0,18.0,51,0.00,,,0.00,0.000000,,2013-02-22 08:11:00,
2013-02-22 00:21:00,43.0,26.0,-100.00,ENE,72,11.0,18.0,51,0.00,,,0.00,0.000000,,2013-02-22 08:21:00,
2013-02-22 00:31:00,43.0,26.0,-100.00,ENE,72,11.0,18.0,51,0.00,,,0.00,0.000000,,2013-02-22 08:31:00,
2013-02-22 00:41:00,43.0,26.0,-100.00,ENE,72,11.0,18.0,51,0.00,,,0.00,0.000000,,2013-02-22 08:41:00,
2013-02-22 01:11:00,44.0,27.0,-100.00,East,91,14.0,19.0,51,0.00,,,0.00,0.000000,,2013-02-22 09:11:00,
2013-02-22 01:21:00,44.0,27.0,-100.00,East,91,14.0,19.0,51,0.00,,,0.00,0.000000,,2013-02-22 09:21:00,
2013-02-22 01:31:00,44.0,27.0,-100.00,East,91,14.0,19.0,51,0.00,,,0.00,0.000000,,2013-02-22 09:31:00,
2013-02-22 01:41:00,44.0,27.0,-100.00,East,91,14.0,19.0,51,0.00,,,0.00,0.000000,,2013-02-22 09:41:00,
2013-02-22 02:11:00,45.0,27.0,-100.00,East,94,14.0,19.0,48,0.00,,,0.00,0.000000,,2013-02-22 10:11:00,
2013-02-22 02:21:00,45.0,27.0,-100.00,East,94,14.0,19.0,48,0.00,,,0.00,0.000000,,2013-02-22 10:21:00,
2013-02-22 02:31:00,45.0,27.0,-100.00,East,94,14.0,19.0,48,0.00,,,0.00,0.000000,,2013-02-22 10:31:00,
2013-02-22 03:11:00,43.0,26.0,-100.00,East,88,15.0,18.0,51,-99.99,,,0.00,0.000000,,2013-02-22 11:11:00,
2013-02-22 03:21:00,43.0,26.0,-100.00,East,88,15.0,18.0,51,-99.99,,,0.00,0.000000,,2013-02-22 11:21:00,
2013-02-22 03:32:00,43.0,26.0,-100.00,East,88,15.0,18.0,51,-99.99,,,0.00,0.000000,,2013-02-22 11:32:00,
2013-02-22 04:11:00,43.0,26.0,-100.00,East,92,16.0,19.0,50,0.00,,,0.00,0.000000,,2013-02-22 12:11:00,
2013-02-22 04:21:00,43.0,26.0,-100.00,East,92,16.0,19.0,50,0.00,,,0.00,0.000000,,2013-02-22 12:21:00,
2013-02-22 04:32:00,43.0,26.0,-100.00,East,92,16.0,19.0,50,0.00,,,0.00,0.000000,,2013-02-22 12:32:00,
2013-02-22 04:42:00,43.0,26.0,-100.00,East,92,16.0,19.0,50,0.00,,,0.00,0.000000,,2013-02-22 12:42:00,
2013-02-22 05:11:00,43.0,26.0,-100.00,East,96,15.0,19.0,50,-99.99,,,0.00,0.000000,,2013-02-22 13:11:00,
2013-02-22 05:22:00,43.0,26.0,-100.00,East,96,15.0,19.0,50,-99.99,,,0.00,0.000000,,2013-02-22 13:22:00,
2013-02-22 05:31:00,43.0,26.0,-100.00,East,96,15.0,19.0,50,-99.99,,,0.00,0.000000,,2013-02-22 13:31:00,
2013-02-22 06:11:00,43.0,24.0,-100.00,East,97,16.0,21.0,47,-99.99,,,0.00,0.000000,,2013-02-22 14:11:00,
2013-02-22 07:11:00,42.0,25.0,-100.00,East,101,14.0,20.0,50,-99.99,,,0.00,4.000000,,2013-02-22 15:11:00,
2013-02-22 07:21:00,42.0,25.0,-100.00,East,101,14.0,20.0,50,-99.99,,,0.00,4.000000,,2013-02-22 15:21:00,
2013-02-22 07:32:00,42.0,25.0,-100.00,East,101,14.0,20.0,50,-99.99,,,0.00,4.000000,,2013-02-22 15:32:00,
2013-02-22 08:12:00,44.0,23.0,-100.00,East,99,13.0,20.0,44,-99.99,,,0.00,119.000000,,2013-02-22 16:12:00,
2013-02-22 08:41:00,44.0,23.0,-100.00,East,99,13.0,20.0,44,-99.99,,,0.00,119.000000,,2013-02-22 16:41:00,
2013-02-22 09:11:00,47.0,25.0,-100.00,East,90,14.0,19.0,41,0.00,,,0.00,315.000000,,2013-02-22 17:11:00,
2013-02-22 09:21:00,47.0,25.0,-100.00,East,90,14.0,19.0,41,0.00,,,0.00,315.000000,,2013-02-22 17:21:00,
2013-02-22 09:31:00,47.0,25.0,-100.00,East,90,14.0,19.0,41,0.00,,,0.00,315.000000,,2013-02-22 17:31:00,
2013-02-22 09:41:00,47.0,25.0,-100.00,East,90,14.0,19.0,41,0.00,,,0.00,315.000000,,2013-02-22 17:41:00,
2013-02-22 10:12:00,51.0,25.0,-100.00,ENE,77,9.0,15.0,36,0.00,,,0.00,505.000000,,2013-02-22 18:12:00,
2013-02-22 10:22:00,51.0,25.0,-100.00,ENE,77,9.0,15.0,36,0.00,,,0.00,505.000000,,2013-02-22 18:22:00,
2013-02-22 10:32:00,51.0,25.0,-100.00,ENE,77,9.0,15.0,36,0.00,,,0.00,505.000000,,2013-02-22 18:32:00,
2013-02-22 10:42:00,51.0,25.0,-100.00,ENE,77,9.0,15.0,36,0.00,,,0.00,505.000000,,2013-02-22 18:42:00,
2013-02-22 11:01:00,55.0,25.0,-100.00,NE,45,5.0,12.0,31,0.00,,,0.00,643.000000,,2013-02-22 19:01:00,
2013-02-22 11:11:00,55.0,25.0,-100.00,NE,45,5.0,12.0,31,0.00,,,0.00,643.000000,,2013-02-22 19:11:00,
2013-02-22 11:21:00,55.0,25.0,-100.00,NE,45,5.0,12.0,31,0.00,,,0.00,643.000000,,2013-02-22 19:21:00,
2013-02-22 11:31:00,55.0,25.0,-100.00,NE,45,5.0,12.0,31,0.00,,,0.00,643.000000,,2013-02-22 19:31:00,
2013-02-22 11:41:00,55.0,25.0,-100.00,NE,45,5.0,12.0,31,0.00,,,0.00,643.000000,,2013-02-22 19:41:00,
2013-02-22 12:11:00,58.0,21.0,-100.00,WSW,243,6.0,13.0,24,0.00,,,0.00,727.000000,,2013-02-22 20:11:00,
2013-02-22 12:21:00,58.0,21.0,-100.00,WSW,243,6.0,13.0,24,0.00,,,0.00,727.000000,,2013-02-22 20:21:00,
2013-02-22 12:31:00,58.0,21.0,-100.00,WSW,243,6.0,13.0,24,0.00,,,0.00,727.000000,,2013-02-22 20:31:00,
2013-02-22 12:41:00,58.0,21.0,-100.00,WSW,243,6.0,13.0,24,0.00,,,0.00,727.000000,,2013-02-22 20:41:00,
2013-02-22 13:11:00,60.0,20.0,-100.00,West,267,10.0,17.0,21,0.00,,,0.00,749.000000,,2013-02-22 21:11:00,
2013-02-22 13:21:00,60.0,20.0,-100.00,West,267,10.0,17.0,21,0.00,,,0.00,749.000000,,2013-02-22 21:21:00,
2013-02-22 13:31:00,60.0,20.0,-100.00,West,267,10.0,17.0,21,0.00,,,0.00,749.000000,,2013-02-22 21:31:00,
2013-02-22 13:41:00,60.0,20.0,-100.00,West,267,10.0,17.0,21,0.00,,,0.00,749.000000,,2013-02-22 21:41:00,
2013-02-22 14:11:00,60.0,25.0,-100.00,WSW,251,14.0,21.0,26,0.00,,,0.00,703.000000,,2013-02-22 22:11:00,
2013-02-22 14:21:00,60.0,25.0,-100.00,WSW,251,14.0,21.0,26,0.00,,,0.00,703.000000,,2013-02-22 22:21:00,
2013-02-22 14:31:00,60.0,25.0,-100.00,WSW,251,14.0,21.0,26,0.00,,,0.00,703.000000,,2013-02-22 22:31:00,
2013-02-22 14:41:00,60.0,25.0,-100.00,WSW,251,14.0,21.0,26,0.00,,,0.00,703.000000,,2013-02-22 22:41:00,
2013-02-22 15:11:00,59.0,25.0,-100.00,WSW,258,14.0,23.0,27,0.00,,,0.00,596.000000,,2013-02-22 23:11:00,
2013-02-22 15:21:00,59.0,25.0,-100.00,WSW,258,14.0,23.0,27,0.00,,,0.00,596.000000,,2013-02-22 23:21:00,
2013-02-22 15:31:00,59.0,25.0,-100.00,WSW,258,14.0,23.0,27,0.00,,,0.00,596.000000,,2013-02-22 23:31:00,
2013-02-22 15:41:00,59.0,25.0,-100.00,WSW,258,14.0,23.0,27,0.00,,,0.00,596.000000,,2013-02-22 23:41:00,
2013-02-22 16:11:00,59.0,26.0,-100.00,West,268,14.0,23.0,28,0.00,,,0.00,443.000000,,2013-02-23 00:11:00,
2013-02-22 16:21:00,59.0,26.0,-100.00,West,268,14.0,23.0,28,0.00,,,0.00,443.000000,,2013-02-23 00:21:00,
2013-02-22 16:31:00,59.0,26.0,-100.00,West,268,14.0,23.0,28,0.00,,,0.00,443.000000,,2013-02-23 00:31:00,
2013-02-22 16:41:00,59.0,26.0,-100.00,West,268,14.0,23.0,28,0.00,,,0.00,443.000000,,2013-02-23 00:41:00,
2013-02-22 17:11:00,55.0,27.0,-100.00,WSW,242,13.0,20.0,34,0.00,,,0.00,252.000000,,2013-02-23 01:11:00,
2013-02-22 17:21:00,55.0,27.0,-100.00,WSW,242,13.0,20.0,34,0.00,,,0.00,252.000000,,2013-02-23 01:21:00,
2013-02-22 17:31:00,55.0,27.0,-100.00,WSW,242,13.0,20.0,34,0.00,,,0.00,252.000000,,2013-02-23 01:31:00,
2013-02-22 17:41:00,55.0,27.0,-100.00,WSW,242,13.0,20.0,34,0.00,,,0.00,252.000000,,2013-02-23 01:41:00,
2013-02-22 18:11:00,52.0,32.0,-100.00,WSW,243,9.0,19.0,46,0.00,,,0.00,63.000000,,2013-02-23 02:11:00,
2013-02-22 18:21:00,52.0,32.0,-100.00,WSW,243,9.0,19.0,46,0.00,,,0.00,63.000000,,2013-02-23 02:21:00,
2013-02-22 18:31:00,52.0,32.0,-100.00,WSW,243,9.0,19.0,46,0.00,,,0.00,63.000000,,2013-02-23 02:31:00,
2013-02-22 18:41:00,52.0,32.0,-100.00,WSW,243,9.0,19.0,46,0.00,,,0.00,63.000000,,2013-02-23 02:41:00,
2013-02-22 19:11:00,50.0,35.0,-100.00,SW,220,4.0,10.0,56,0.00,,,0.00,1.000000,,2013-02-23 03:11:00,
2013-02-22 19:21:00,50.0,35.0,-100.00,SW,220,4.0,10.0,56,0.00,,,0.00,1.000000,,2013-02-23 03:21:00,
2013-02-22 19:31:00,50.0,35.0,-100.00,SW,220,4.0,10.0,56,0.00,,,0.00,1.000000,,2013-02-23 03:31:00,
2013-02-22 19:41:00,50.0,35.0,-100.00,SW,220,4.0,10.0,56,0.00,,,0.00,1.000000,,2013-02-23 03:41:00,
2013-02-22 20:11:00,49.0,36.0,-100.00,WSW,247,4.0,6.0,60,0.00,,,0.00,0.000000,,2013-02-23 04:11:00,
2013-02-22 20:21:00,49.0,36.0,-100.00,WSW,247,4.0,6.0,60,0.00,,,0.00,0.000000,,2013-02-23 04:21:00,
2013-02-22 20:31:00,49.0,36.0,-100.00,WSW,247,4.0,6.0,60,0.00,,,0.00,0.000000,,2013-02-23 04:31:00,
2013-02-22 20:41:00,49.0,36.0,-100.00,WSW,247,4.0,6.0,60,0.00,,,0.00,0.000000,,2013-02-23 04:41:00,
2013-02-22 21:12:00,48.0,36.0,-100.00,East,94,3.0,6.0,62,0.00,,,0.00,0.000000,,2013-02-23 05:12:00,
2013-02-22 21:22:00,48.0,36.0,-100.00,East,94,3.0,6.0,62,0.00,,,0.00,0.000000,,2013-02-23 05:22:00,
2013-02-22 21:32:00,48.0,36.0,-100.00,East,94,3.0,6.0,62,0.00,,,0.00,0.000000,,2013-02-23 05:32:00,
2013-02-22 21:41:00,48.0,36.0,-100.00,East,94,3.0,6.0,62,0.00,,,0.00,0.000000,,2013-02-23 05:41:00,
2013-02-22 22:11:00,49.0,34.0,-100.00,ESE,107,8.0,9.0,55,0.00,,,0.00,0.000000,,2013-02-23 06:11:00,
2013-02-22 22:22:00,49.0,34.0,-100.00,ESE,107,8.0,9.0,55,0.00,,,0.00,0.000000,,2013-02-23 06:22:00,
2013-02-22 22:31:00,49.0,34.0,-100.00,ESE,107,8.0,9.0,55,0.00,,,0.00,0.000000,,2013-02-23 06:31:00,
2013-02-22 22:41:00,49.0,34.0,-100.00,ESE,107,8.0,9.0,55,0.00,,,0.00,0.000000,,2013-02-23 06:41:00,
2013-02-22 23:11:00,49.0,32.0,-100.00,ESE,111,10.0,13.0,52,0.00,,,0.00,0.000000,,2013-02-23 07:11:00,
2013-02-22 23:21:00,49.0,32.0,-100.00,ESE,111,10.0,13.0,52,0.00,,,0.00,0.000000,,2013-02-23 07:21:00,
2013-02-22 23:31:00,49.0,32.0,-100.00,ESE,111,10.0,13.0,52,0.00,,,0.00,0.000000,,2013-02-23 07:31:00,